This is the latest recevied weather packets stored in our database for station/object KO6SRA-13. If no packets are shown the sender has not sent any weather packets the latest 10 day(s).
| Time | Temp. | Humidity | Pressure | Rain* | Wind** | Luminosity | Snow |
|---|---|---|---|---|---|---|---|
| 1787671268 | 17.22° C | 83% | 1019 hPa | 0 mm | - | 116 W/m² | - |
| 1787670962 | 16.67° C | 86% | 1018.9 hPa | 0 mm | - | 149 W/m² | - |
| 1787670658 | 16.11° C | 88% | 1018.9 hPa | 0 mm | - | 104 W/m² | - |
| 1787670357 | 15.56° C | 91% | 1018.8 hPa | 0 mm | - | 124 W/m² | - |
| 1787670053 | 15.56° C | 91% | 1018.8 hPa | 0 mm | - | 100 W/m² | - |
| 1787669747 | 15° C | 92% | 1018.9 hPa | 0 mm | - | 85 W/m² | - |
| 1787669442 | 14.44° C | 93% | 1018.9 hPa | 0 mm | - | 79 W/m² | - |
| 1787669138 | 13.89° C | 95% | 1018.9 hPa | 0 mm | - | 63 W/m² | - |
| 1787668834 | 13.89° C | 96% | 1019 hPa | 0 mm | - | 49 W/m² | - |
| 1787668530 | 13.89° C | 96% | 1018.8 hPa | 0 mm | - | 53 W/m² | - |
| 1787668225 | 13.89° C | 96% | 1018.8 hPa | 0 mm | - | 46 W/m² | - |
| 1787667925 | 13.33° C | 97% | 1018.8 hPa | 0 mm | - | 42 W/m² | - |
| 1787667620 | 13.33° C | 97% | 1019 hPa | 0 mm | - | 44 W/m² | - |
| 1787667316 | 13.33° C | 96% | 1018.7 hPa | 0 mm | - | 39 W/m² | - |
| 1787667015 | 13.33° C | 97% | 1019.1 hPa | 0 mm | - | 36 W/m² | - |
| 1787666711 | 12.78° C | 97% | 1018.8 hPa | 0 mm | - | 35 W/m² | - |
| 1787666411 | 12.78° C | 97% | 1018.8 hPa | 0 mm | - | 27 W/m² | - |
| 1787666106 | 12.22° C | 97% | 1018.8 hPa | 0 mm | - | 18 W/m² | - |
| 1787665806 | 12.22° C | 97% | 1018.9 hPa | 0 mm | - | 13 W/m² | - |
| 1787665502 | 12.22° C | 97% | 1018.7 hPa | 0 mm | - | 10 W/m² | - |
| 1787665201 | 12.22° C | 97% | 1018.6 hPa | 0 mm | - | 6 W/m² | - |
| 1787664899 | 12.22° C | 97% | 1018.6 hPa | 0 mm | - | 3 W/m² | - |
| 1787664594 | 12.22° C | 97% | 1018.4 hPa | 0 mm | - | 1 W/m² | - |
| 1787664289 | 12.22° C | 97% | 1018.3 hPa | 0 mm | - | 0 W/m² | - |
| 1787663988 | 12.22° C | 97% | 1018.4 hPa | 0 mm | - | 0 W/m² | - |
* Rain latest hour (hover to see other rain measurements)
** Current wind speed in m/s (hover to see current wind gust speed)